RH
25 29 40 47 50 51 47 45 45 48 54 61 67 73 74 74 71 68 72 78 82 84 82 81 82 80 75 69 67 57 37 26 30 33 31 29 29 31 31 28 28 27 28 32 39 45 49 48 45 41 38 35 34 32 31 30 29 28 24 20 14 8 7
31 29 35 46 53 53 51 46 41 45 54 62 70 75 76 76 74 70 72 79 85 83 78 77 79 79 75 70 69 60 39 26 28 33 32 30 32 33 31 29 28 27 31 38 46 50 50 48 44 40 37 35 33 32 31 30 29 27 23 17 10 7 7
35 32 32 42 53 55 52 47 42 46 56 65 72 78 79 77 75 71 72 80 85 81 75 74 76 77 75 71 68 62 45 32 32 34 31 30 32 32 31 29 27 29 36 43 49 51 48 46 42 40 38 36 33 31 31 30 28 26 21 14 8 6 6
35 34 30 38 54 58 53 50 50 55 64 70 73 77 79 78 75 72 73 80 82 78 74 73 74 75 75 72 66 59 49 41 38 34 29 30 32 32 30 28 29 33 40 46 49 48 46 43 41 40 38 35 33 31 29 29 28 24 18 11 8 7 6
35 35 30 34 53 60 56 55 58 64 72 74 73 77 81 79 75 74 76 79 80 77 74 72 73 74 75 74 68 61 55 49 42 32 28 30 31 31 29 28 31 38 44 48 48 46 44 42 41 40 37 34 31 29 29 29 27 21 15 10 8 7 6
36 36 31 30 45 58 59 58 61 67 73 73 74 79 82 78 75 76 77 78 77 76 74 72 72 73 73 73 71 68 61 50 38 30 28 30 30 30 29 29 35 43 48 49 47 45 43 42 41 40 37 33 30 28 28 29 25 19 13 10 8 7 5
37 37 33 26 36 55 61 59 63 68 71 72 76 78 78 76 74 74 74 74 74 75 75 74 72 72 72 73 72 69 59 46 37 33 30 28 28 28 27 31 41 48 49 48 47 46 44 43 42 40 37 33 31 30 29 26 22 15 10 9 7 5 5
38 39 34 25 29 50 62 62 65 69 70 73 76 76 75 75 74 72 71 71 73 75 76 74 73 72 71 70 69 63 53 46 44 41 36 30 28 26 27 37 47 51 50 48 48 47 45 44 43 41 38 34 31 30 28 23 17 12 9 8 6 5 5
40 40 35 24 23 42 60 65 69 70 71 73 75 74 75 75 74 72 71 71 74 76 76 75 75 72 69 67 64 59 54 53 52 49 43 33 26 27 36 47 52 52 51 49 49 48 47 46 45 43 40 35 32 30 26 19 13 10 9 7 5 5 6
41 41 36 25 22 39 60 68 70 69 69 70 71 72 74 75 73 71 71 72 75 77 77 77 75 71 69 66 64 61 59 57 53 47 39 31 31 40 50 55 55 53 52 51 51 51 49 48 46 44 41 36 32 27 21 15 11 9 7 5 5 6 6
42 42 36 26 23 39 59 68 70 70 69 70 70 71 73 73 71 69 70 73 76 78 78 76 73 69 68 66 65 63 58 51 44 38 37 39 46 54 57 57 56 54 54 54 54 53 51 50 49 45 41 35 29 24 17 12 9 7 6 5 5 6 6
43 43 37 27 21 34 53 65 73 73 71 70 67 69 73 72 70 70 72 75 78 79 78 74 69 66 65 66 64 59 51 44 41 43 50 56 59 60 59 58 58 57 58 58 56 55 54 52 50 46 39 33 27 21 14 9 7 5 6 6 5 6 8
44 43 39 29 19 30 49 62 75 77 71 68 67 68 72 71 71 72 72 75 77 78 77 71 66 64 64 64 59 52 47 46 50 58 63 64 62 61 61 61 61 61 62 60 58 56 55 53 50 44 37 31 26 18 10 6 5 5 5 5 6 8 11
45 44 42 31 18 27 45 57 73 80 71 68 69 68 70 72 73 73 72 74 76 77 74 68 64 63 61 58 53 51 52 53 59 67 69 67 65 65 64 64 64 65 64 62 59 57 57 55 50 44 37 28 19 11 6 5 5 5 5 6 8 11 12
47 45 43 35 19 23 38 48 69 81 71 68 71 68 69 72 73 74 72 72 75 76 72 67 64 62 57 54 54 56 57 58 64 71 70 69 69 68 67 68 69 68 66 62 60 60 60 56 51 47 39 26 13 6 5 5 5 5 6 7 11 13 10
47 45 45 39 20 19 31 41 62 78 71 67 71 69 70 72 74 75 72 72 75 76 73 67 65 62 58 56 58 60 61 61 67 73 73 72 72 71 72 72 72 71 67 63 63 65 63 57 52 46 34 19 9 6 5 5 5 5 6 10 13 12 8
47 46 47 42 22 16 27 36 54 72 69 65 69 70 70 71 72 73 71 72 75 76 74 69 66 65 62 62 63 64 64 65 68 73 75 75 75 75 76 77 77 74 69 66 68 69 65 60 53 40 25 12 7 6 5 5 6 5 8 14 14 10 7
46 47 48 43 23 15 24 33 47 62 62 61 67 70 69 68 69 71 73 74 76 77 74 69 67 67 65 65 65 66 67 67 68 72 75 77 79 79 80 81 80 76 71 71 74 72 68 63 50 32 18 9 5 5 5 5 5 7 12 16 12 8 6
45 47 48 39 20 14 22 30 40 52 54 57 65 69 69 69 70 72 74 74 75 75 73 70 68 67 68 67 68 70 71 69 68 69 74 78 81 83 84 83 80 75 73 78 77 72 70 64 46 25 13 7 5 5 6 5 6 9 15 15 10 6 6
45 48 47 33 15 14 22 27 35 45 50 55 62 67 70 71 72 74 75 74 74 74 72 71 69 68 70 70 70 72 73 70 67 66 71 78 82 83 83 81 79 76 78 83 79 74 73 60 38 19 9 7 6 5 5 5 7 13 16 13 8 6 6
46 51 49 30 13 15 21 25 33 43 49 52 58 66 72 73 75 76 76 75 74 74 73 72 72 72 72 73 73 74 75 72 66 63 69 76 79 80 82 82 81 80 83 84 78 76 72 51 27 15 9 7 6 5 6 6 9 15 16 10 7 6 6
46 53 53 33 13 14 20 26 33 41 47 50 56 68 75 76 77 78 76 75 73 74 75 75 75 75 74 75 75 76 77 72 63 59 64 72 78 82 85 87 85 84 84 82 77 76 64 39 21 14 10 7 6 6 5 6 11 16 14 9 7 7 6
47 55 56 35 15 13 21 29 34 37 45 50 56 68 74 74 77 78 76 75 75 76 77 77 79 78 77 77 76 78 78 70 61 61 68 78 84 86 88 91 89 87 85 80 78 73 54 30 19 15 11 7 6 6 6 8 14 16 12 8 7 7 6
51 56 54 34 15 13 22 32 35 36 45 51 55 66 72 72 77 79 77 77 80 82 80 78 80 80 79 78 77 78 78 69 64 70 78 85 87 87 92 92 85 82 81 79 78 68 45 25 18 15 11 8 7 6 6 9 15 15 11 8 8 7 7
51 49 43 28 14 14 24 32 35 36 43 48 51 60 68 72 78 81 78 79 83 85 82 78 79 81 81 80 78 77 76 72 72 79 86 89 89 90 94 90 81 77 77 79 77 61 36 21 15 12 10 8 7 7 7 11 16 14 10 9 8 8 7
48 36 29 21 13 16 25 31 33 35 40 46 49 55 65 75 81 80 78 81 86 87 83 78 78 81 82 79 78 77 75 75 79 87 93 93 91 91 92 90 84 78 78 80 74 54 31 18 13 12 10 8 6 6 7 12 15 13 10 9 9 8 7
47 31 21 17 14 16 23 28 32 35 38 43 46 48 59 74 81 80 79 83 86 86 82 79 78 80 81 79 76 74 75 78 83 91 96 94 92 91 91 91 85 78 79 80 69 50 28 14 14 15 11 7 6 6 8 13 15 13 11 10 9 8 8
48 35 20 14 15 18 21 26 31 34 34 37 40 44 59 77 84 83 82 84 86 85 84 81 78 78 79 77 74 73 76 82 87 92 94 94 94 94 93 92 86 78 77 77 68 47 23 20 33 32 14 5 6 6 9 13 14 12 11 10 10 9 8
42 36 22 14 14 17 19 22 28 32 34 36 38 41 53 69 80 84 85 85 86 85 84 83 80 79 79 76 74 76 80 87 92 93 95 97 97 97 97 97 92 81 73 73 68 44 27 42 60 44 14 4 6 7 10 13 13 12 11 11 10 9 9
32 29 22 15 14 17 19 21 25 32 35 36 37 39 47 61 75 83 87 90 89 84 81 84 85 83 80 76 76 80 85 91 94 94 95 99 100 99 99 98 96 87 75 72 66 46 42 61 61 31 10 6 6 7 11 13 13 12 11 11 11 10 9
33 26 20 15 15 17 20 21 24 31 36 38 42 49 59 71 80 85 89 93 94 87 80 83 86 83 79 78 80 85 89 91 93 93 95 99 100 100 98 94 95 94 84 76 67 54 58 64 44 17 9 7 5 8 12 13 12 12 11 12 11 11 10
40 31 22 17 17 20 23 25 28 32 36 42 43 43 53 67 78 86 90 91 94 91 82 79 81 79 78 78 81 87 90 89 92 95 97 99 100 100 98 94 96 98 92 82 72 65 67 59 31 10 8 6 6 10 12 13 13 11 11 12 12 12 11
45 38 29 22 20 22 26 31 34 33 33 36 31 26 42 66 80 88 91 89 92 93 85 80 81 81 80 79 83 92 95 90 91 95 96 99 100 98 98 99 99 101 96 84 75 72 69 51 22 7 6 6 8 10 12 13 12 10 11 13 13 13 12
47 42 36 30 25 25 27 31 33 31 28 27 23 25 47 74 87 91 92 91 94 96 91 87 87 84 81 79 82 91 95 92 94 97 96 97 97 96 99 101 99 100 98 88 80 77 66 42 20 9 7 6 8 10 13 13 12 10 11 12 14 14 13
47 44 41 36 30 26 25 25 26 26 22 20 27 42 63 80 89 92 91 89 92 96 96 94 90 84 81 80 82 86 89 91 95 96 95 96 98 98 100 100 98 100 100 93 86 77 57 34 21 13 8 7 9 10 12 13 12 10 10 12 15 15 14
51 47 39 32 29 25 21 20 20 19 19 19 29 52 72 82 88 91 89 88 91 95 99 99 94 89 85 83 84 89 95 99 98 95 94 98 99 99 100 100 100 100 100 96 86 67 42 28 24 18 12 10 10 10 12 13 12 10 10 11 14 16 16
61 55 43 32 27 21 17 18 16 19 33 38 37 53 75 83 88 93 91 90 93 96 99 100 98 96 93 90 93 95 92 90 90 90 93 98 100 99 99 99 100 100 99 96 81 55 36 30 28 21 15 12 9 9 13 13 11 10 10 11 14 16 17
Wind_Speed
14 15 16 16 16 18 18 18 18 18 18 17 16 15 14 14 14 15 16 16 16 16 16 16 15 13 12 12 13 14 14 15 14 12 12 12 12 12 14 14 15 16 17 18 18 18 17 17 17 17 17 18 18 19 20 21 22 23 24 24 24 25 26
15 16 18 19 19 19 19 19 19 19 18 16 16 15 14 14 15 15 16 16 16 16 16 15 14 13 12 13 14 15 15 16 15 14 13 13 13 14 15 16 16 17 18 18 18 18 17 17 17 17 17 18 19 20 21 21 22 23 23 23 23 25 26
16 17 18 20 20 20 20 19 19 18 17 17 16 16 14 14 15 15 16 16 15 15 15 14 13 13 13 13 14 15 16 16 16 16 14 14 14 15 16 17 17 18 18 18 18 18 18 17 16 17 17 18 20 21 22 22 22 23 23 23 23 24 26
17 17 18 20 20 19 19 18 19 18 17 17 17 16 14 14 14 15 16 16 15 15 15 14 14 13 13 14 14 15 15 16 17 16 15 14 15 16 17 17 18 18 18 18 18 19 18 17 17 17 17 18 20 22 22 22 22 23 23 23 23 24 25
17 17 18 19 19 19 18 19 19 19 18 18 17 16 15 14 15 15 16 16 16 15 15 15 14 14 15 15 15 15 16 16 17 16 15 15 16 17 17 18 18 18 18 18 19 19 18 17 17 17 18 19 20 22 23 23 23 23 23 22 23 24 24
19 17 18 19 20 19 19 20 20 20 18 17 17 17 16 15 16 16 17 17 16 16 15 15 15 15 15 16 16 17 17 17 17 16 16 16 17 17 18 18 18 18 18 18 19 19 18 18 18 18 19 20 21 22 22 23 23 23 22 22 22 23 23
21 18 18 20 21 19 19 20 20 20 19 18 18 18 17 17 18 18 18 18 17 16 16 16 15 16 16 17 17 18 18 17 17 17 17 17 18 18 19 18 18 17 18 19 19 18 18 18 18 19 19 20 21 22 22 23 24 23 22 22 22 22 22
22 19 18 20 21 20 20 21 21 20 19 20 20 18 17 17 19 19 19 18 17 17 17 16 16 16 16 17 18 18 18 17 17 18 18 19 19 19 19 18 17 17 18 19 19 19 19 18 19 19 20 21 22 23 23 23 23 22 22 21 21 21 21
23 20 18 20 21 21 21 21 21 21 21 21 21 18 16 18 19 20 19 19 18 18 17 17 16 17 17 18 18 18 18 18 18 18 19 19 19 19 18 17 17 18 18 19 19 19 19 19 19 20 20 21 22 23 23 23 22 21 21 21 20 19 19
24 21 19 19 22 23 22 22 22 22 22 22 21 18 17 18 20 20 20 19 18 18 18 17 17 17 18 19 19 19 19 19 18 19 19 19 18 17 17 16 17 18 19 19 19 19 19 19 19 20 21 22 22 23 23 22 21 20 20 19 19 18 18
25 21 19 20 23 24 23 22 23 23 22 21 20 19 18 19 20 20 20 20 19 19 18 18 17 18 18 19 19 19 19 19 18 18 18 17 16 16 16 16 17 18 19 19 19 19 19 19 20 21 22 22 22 22 22 21 20 19 18 18 18 17 18
26 22 21 21 24 26 24 23 23 23 23 22 20 19 19 20 20 20 20 20 20 19 18 17 17 18 18 19 19 19 18 17 17 16 16 15 15 16 16 17 18 19 19 19 19 19 19 20 21 22 22 22 21 21 20 19 19 18 17 17 17 17 17
27 24 23 23 25 27 25 23 23 23 24 23 21 20 20 21 21 21 21 20 20 19 18 18 17 18 18 19 18 17 17 16 16 15 15 15 15 15 16 17 18 19 19 19 20 20 20 21 22 22 22 21 21 20 19 18 18 17 16 16 15 16 17
28 26 24 24 25 28 27 25 24 24 25 24 22 21 21 22 22 21 21 20 19 18 18 18 17 17 18 18 17 16 16 16 16 15 16 16 15 16 16 17 18 19 19 20 20 20 20 21 22 22 21 20 19 18 17 17 17 16 16 15 15 17 18
29 27 25 25 26 29 28 26 25 25 25 25 24 23 23 23 22 21 21 20 19 18 18 18 18 17 18 18 17 17 17 17 16 16 17 16 16 16 16 17 18 19 20 20 20 20 21 21 21 21 20 19 17 16 16 16 16 16 15 15 16 17 18
30 28 26 26 27 30 30 28 26 26 26 25 24 24 24 23 22 21 20 20 19 19 19 19 18 18 18 18 18 18 17 17 17 18 18 17 16 16 17 18 19 20 20 20 20 20 21 21 20 20 19 18 16 16 16 16 16 15 15 15 17 17 17
31 30 28 28 29 31 31 29 27 27 27 25 24 24 24 24 22 21 20 19 19 19 19 19 19 19 19 19 18 18 18 17 18 19 19 18 17 17 18 19 20 20 20 20 20 21 20 20 19 18 17 17 16 16 16 16 15 14 15 16 17 17 17
31 31 30 30 30 31 33 31 29 28 27 25 24 24 25 24 22 20 19 19 20 20 20 20 20 20 19 19 19 18 18 18 19 20 19 19 18 18 19 20 21 21 21 20 20 20 20 18 17 16 16 16 16 16 16 16 15 14 15 17 17 17 17
31 31 31 31 31 32 33 32 30 29 27 25 24 24 25 24 22 20 19 19 20 21 21 20 20 20 20 19 19 18 18 19 20 21 20 20 19 20 20 21 22 22 21 21 20 20 19 18 16 16 16 15 15 16 16 15 14 15 16 17 17 17 18
31 31 30 31 32 33 34 34 31 29 28 26 25 25 26 25 23 21 20 20 21 21 21 21 21 21 20 20 19 19 19 20 20 21 21 21 21 21 22 22 23 22 22 21 20 19 18 17 16 15 15 15 15 16 16 15 14 15 17 17 17 17 17
32 31 31 32 33 34 35 35 32 30 29 27 25 25 26 26 24 22 21 21 22 21 21 21 21 21 20 20 20 20 20 20 21 21 21 21 21 22 23 23 23 23 22 21 19 18 18 17 16 15 15 15 15 15 15 15 15 16 17 17 17 17 17
34 33 33 33 34 35 36 35 33 31 30 28 26 26 27 27 26 25 23 22 22 21 20 21 21 21 21 21 21 21 21 21 21 20 20 21 21 22 23 24 24 24 23 20 18 18 18 17 16 15 15 15 15 15 15 15 16 17 17 17 17 17 17
35 36 36 35 35 36 37 36 33 32 31 30 27 27 28 29 28 26 24 23 22 21 20 20 21 21 22 22 22 21 21 20 20 19 20 21 22 23 23 24 26 26 23 19 18 18 17 17 16 16 15 15 15 15 16 16 16 17 17 17 17 17 17
37 37 37 36 36 38 38 36 34 32 32 31 28 28 29 30 29 27 25 24 23 21 21 21 21 22 23 23 22 21 21 20 20 20 21 21 21 22 23 23 24 24 22 19 18 18 18 17 16 16 15 16 16 16 16 17 17 18 18 17 17 18 18
37 36 36 37 38 39 39 37 35 33 32 31 29 29 31 31 30 28 27 26 24 23 22 22 22 23 23 23 22 21 21 20 20 21 21 21 21 22 22 21 21 21 20 19 18 18 18 17 16 15 15 16 17 16 16 17 18 18 18 18 18 18 18
35 34 35 37 38 40 40 38 36 34 32 31 31 31 31 31 30 30 29 27 25 24 23 22 22 23 23 23 22 21 21 21 21 21 21 21 21 21 21 20 19 19 20 20 19 19 18 17 16 15 16 17 17 17 17 17 18 19 18 18 18 18 18
33 33 35 37 39 40 40 38 36 34 32 32 32 32 32 31 31 31 29 28 26 25 24 23 23 24 24 24 23 22 21 21 21 21 21 20 19 20 21 20 19 20 21 21 20 20 19 17 16 16 16 17 16 17 17 17 18 19 18 19 19 19 19
34 34 35 37 39 40 40 38 36 34 33 33 32 32 32 31 31 31 30 28 27 26 25 24 24 25 25 24 23 23 22 21 21 21 20 18 18 19 20 19 18 19 21 21 21 21 19 17 17 17 17 17 16 17 17 17 18 19 18 19 19 19 19
33 34 35 37 39 40 39 37 36 34 34 33 32 33 32 31 30 31 31 30 28 27 26 26 26 25 25 24 24 23 22 21 21 21 19 18 19 19 19 18 18 18 20 21 22 21 19 18 19 18 17 17 17 16 17 17 18 18 18 19 19 19 19
30 32 35 38 39 40 38 37 36 35 35 34 33 33 32 32 33 34 33 31 29 28 26 26 26 26 25 25 24 24 23 22 22 21 20 20 19 19 19 19 18 17 19 21 22 21 20 20 19 18 17 17 17 16 17 17 18 18 18 18 19 19 19
29 30 33 37 39 39 39 38 36 35 36 35 33 33 35 36 35 34 33 31 28 26 26 27 27 26 25 25 26 26 24 22 21 20 20 21 21 21 21 19 18 18 19 21 22 22 21 21 19 18 18 17 17 17 17 17 18 18 18 18 19 19 19
29 29 32 35 37 38 38 37 36 35 35 33 32 33 36 36 33 31 31 29 25 24 27 27 27 26 25 25 27 25 21 19 19 19 20 21 21 21 20 20 20 21 21 22 23 22 21 21 20 19 18 18 17 17 17 18 18 18 18 18 18 18 18
30 30 32 34 36 37 37 37 36 35 33 32 31 33 35 35 32 31 31 29 25 24 26 27 26 25 25 25 25 23 19 17 18 20 20 21 22 21 20 21 21 22 22 23 23 22 21 21 21 19 19 18 18 17 18 18 18 18 18 18 18 18 18
29 30 31 33 35 37 38 38 36 34 33 32 30 30 33 33 30 28 29 28 27 25 25 26 25 24 24 24 23 22 20 18 19 21 22 22 23 22 22 22 22 23 23 23 23 23 22 21 21 20 19 19 18 18 18 18 18 18 18 18 18 18 18
28 28 29 32 34 36 36 36 34 33 32 31 28 27 27 27 24 25 27 29 27 25 23 24 24 22 22 22 21 20 20 20 22 23 23 23 23 23 23 23 23 23 23 24 24 23 22 22 21 20 20 20 19 18 19 19 18 18 18 18 19 18 18
26 26 28 30 31 33 33 31 31 32 31 30 29 29 28 25 23 25 27 28 27 24 24 24 24 22 21 21 21 19 20 22 23 23 23 23 23 23 23 23 23 23 23 24 24 23 23 22 21 21 21 21 20 19 20 19 19 19 19 19 19 19 18
26 26 28 30 31 32 31 31 32 31 28 25 28 32 33 30 27 25 25 27 27 25 25 26 24 22 22 22 21 21 23 24 24 23 22 22 21 20 20 20 22 22 22 23 24 24 23 22 22 22 22 22 21 20 20 20 19 19 19 19 19 19 19
Wind_Direction
266 251 236 228 230 234 239 244 248 248 247 248 250 250 253 255 252 248 249 255 262 267 269 266 264 263 259 252 249 249 244 238 242 254 261 263 264 265 267 271 275 279 283 286 288 289 290 291 291 292 292 292 293 295 296 300 303 307 311 315 316 313 311
272 259 240 230 231 236 241 248 254 253 251 251 251 250 252 254 251 248 248 254 261 264 265 262 258 256 251 246 245 246 244 241 246 256 262 264 264 266 269 273 278 281 284 285 286 287 287 289 290 291 291 291 293 293 296 299 303 307 311 314 313 310 309
277 268 249 235 233 239 243 251 259 259 255 254 251 248 249 252 249 245 246 252 258 260 260 258 254 250 246 243 243 244 244 244 248 254 258 261 263 266 270 274 279 282 284 286 285 285 287 289 289 289 289 290 291 292 296 300 304 308 311 312 309 308 310
278 273 256 240 235 240 245 253 259 259 257 255 252 245 245 249 246 242 244 250 255 254 253 252 251 248 246 244 244 244 245 246 249 253 256 258 262 266 271 275 279 282 284 285 285 286 288 289 288 287 288 289 289 292 297 301 304 307 309 309 307 308 311
276 276 263 244 235 239 245 250 254 255 255 255 249 241 240 244 241 239 243 248 251 249 246 248 249 248 246 245 246 246 248 250 252 255 256 258 262 267 271 275 278 281 282 284 284 286 288 288 287 286 286 287 289 293 298 301 303 305 306 306 306 309 311
272 275 268 249 235 236 242 247 252 253 253 251 242 235 234 236 235 235 240 246 248 246 244 246 247 248 248 247 248 249 251 253 254 256 257 259 262 266 271 275 277 280 281 283 284 285 286 285 284 284 284 287 289 293 297 299 301 303 304 305 308 310 310
269 273 271 254 237 234 240 247 252 253 251 245 238 233 232 233 234 235 240 246 247 244 243 245 247 248 248 249 250 251 251 252 255 258 260 261 263 266 271 274 277 279 280 281 282 283 284 283 282 283 284 286 289 292 295 297 300 302 303 306 309 309 309
267 270 270 256 238 233 239 246 251 252 249 244 243 240 235 234 235 238 243 247 246 243 242 244 246 248 248 249 249 249 250 252 255 260 262 262 263 266 270 274 276 278 280 281 282 282 282 281 282 283 284 286 289 291 293 295 298 301 304 307 308 308 307
263 267 273 261 241 233 237 244 250 251 247 244 246 246 240 236 236 239 245 247 245 242 242 244 246 247 248 248 248 248 249 252 257 261 262 263 263 266 269 272 275 278 280 280 280 280 280 281 282 283 284 286 288 291 294 296 298 301 304 306 306 306 307
260 266 275 263 242 233 235 242 248 250 247 245 245 245 240 236 235 240 245 247 244 242 242 243 245 245 247 248 249 250 251 255 260 262 262 261 262 264 267 271 275 278 278 278 279 280 282 282 282 283 283 285 287 291 294 297 299 301 303 304 304 306 307
258 264 271 259 240 233 235 239 245 250 249 246 244 242 237 234 234 239 245 246 245 242 241 242 243 244 247 248 249 251 255 259 261 260 259 259 260 264 268 272 275 276 277 279 281 282 282 282 282 282 283 285 288 292 295 297 299 301 302 302 303 306 308
256 260 268 260 241 234 233 235 244 250 249 246 243 239 234 231 232 237 242 244 244 242 240 240 242 245 247 248 249 253 257 260 258 256 256 258 261 266 269 272 274 276 279 281 282 282 282 283 284 284 286 289 291 293 296 297 298 300 300 301 303 306 309
254 258 266 262 244 235 233 233 240 247 248 247 244 238 231 228 230 234 239 241 242 241 239 239 241 244 246 246 248 252 257 257 255 254 257 260 263 267 269 271 274 278 281 282 281 281 282 284 286 288 290 292 293 294 296 296 296 297 299 301 303 306 308
252 255 264 263 247 236 233 230 236 244 246 246 243 235 228 227 229 233 237 239 240 239 237 238 241 244 245 245 247 252 255 254 254 256 258 260 262 266 268 271 275 279 281 281 280 280 282 286 288 290 292 293 294 294 293 293 294 296 299 302 304 307 309
250 253 261 262 249 238 233 229 232 240 243 243 240 232 227 226 229 234 238 239 239 238 237 238 241 243 244 245 248 252 254 254 255 257 258 259 262 266 269 272 275 278 279 279 279 281 284 288 291 292 293 294 293 292 291 291 293 297 301 304 306 308 308
248 252 258 260 250 239 235 229 229 236 240 240 236 229 225 225 230 235 238 239 239 238 237 237 239 242 244 246 249 252 254 254 255 257 257 259 262 266 269 272 275 277 277 277 278 282 285 288 291 292 293 293 292 291 291 292 295 298 302 305 307 306 306
248 252 257 258 249 239 235 231 228 233 238 238 234 227 223 225 229 234 238 240 239 238 237 237 239 241 244 247 249 251 254 255 256 256 257 259 262 265 268 272 275 276 276 276 279 283 286 288 290 290 290 290 290 291 291 292 295 299 303 306 306 305 305
248 252 256 255 247 238 235 232 229 231 235 237 231 225 224 226 229 233 237 239 239 238 238 238 239 242 245 248 250 253 256 256 257 257 257 259 261 264 268 272 275 276 275 277 280 283 285 287 287 287 287 288 289 290 291 293 296 300 304 305 304 303 303
247 252 256 253 244 237 234 232 230 230 233 235 231 225 225 226 227 230 233 235 237 238 239 239 241 243 247 250 251 254 257 258 258 258 258 259 261 264 269 272 275 274 275 279 282 282 284 285 285 284 285 287 288 288 289 292 295 299 302 303 301 301 301
246 251 254 250 242 235 233 232 231 231 232 233 231 227 226 225 225 227 230 232 235 237 238 240 242 245 248 250 251 252 255 258 259 259 259 260 262 266 270 273 275 274 277 280 281 280 282 283 282 282 284 285 286 287 288 290 293 298 302 301 300 300 301
245 248 251 249 240 233 232 233 231 230 232 233 231 229 227 225 224 225 228 231 234 237 239 240 242 245 247 248 248 250 254 258 260 261 261 262 264 268 272 275 276 276 279 281 278 278 281 281 280 280 282 284 284 286 287 289 294 299 301 300 300 301 303
243 246 249 246 238 232 232 233 231 230 232 233 231 229 227 225 224 225 227 231 235 237 239 240 242 244 245 246 246 248 253 259 262 263 263 264 267 271 275 278 278 278 279 278 274 276 278 278 278 279 281 284 284 285 287 290 295 299 300 300 301 302 304
242 246 248 244 236 231 231 232 231 231 232 232 231 229 228 227 226 226 228 231 235 238 239 239 240 242 243 244 245 249 254 260 263 264 265 267 271 275 279 283 282 279 277 273 271 274 275 274 276 279 282 283 283 285 288 290 295 299 299 300 302 303 306
243 246 245 240 233 231 231 231 231 231 231 232 231 231 231 230 227 227 229 232 235 237 238 239 239 241 242 243 245 250 255 260 264 265 267 270 274 279 283 288 287 281 273 269 269 271 271 272 276 279 281 282 283 285 288 291 295 298 299 301 303 305 307
244 244 240 235 232 231 231 231 231 231 232 232 232 233 233 232 229 228 229 231 234 237 238 238 238 240 242 244 247 251 255 260 263 266 270 274 277 279 282 287 288 280 270 267 268 268 268 270 273 276 279 280 283 285 287 290 295 297 299 302 304 305 307
244 241 236 233 232 231 231 231 231 232 233 233 233 234 234 234 232 231 231 231 233 236 237 237 238 240 242 244 247 251 255 258 262 266 271 276 278 278 282 286 284 275 268 266 265 264 265 266 269 273 276 278 281 283 286 290 295 297 299 303 304 305 307
244 239 235 233 232 232 232 231 231 233 234 234 234 236 235 234 235 234 233 232 234 237 238 238 239 241 243 245 247 251 254 257 261 265 269 274 278 280 284 287 282 272 267 265 263 262 262 262 267 272 274 275 278 280 284 289 294 297 300 302 303 304 307
244 240 236 234 233 233 233 232 232 234 236 236 237 239 237 235 235 236 236 234 235 237 239 241 242 242 244 245 247 251 255 258 262 266 268 271 275 280 284 287 285 276 270 267 265 264 263 265 272 274 272 273 275 277 283 288 292 295 298 300 302 304 307
244 241 237 234 234 234 234 233 233 235 238 238 239 241 240 237 236 238 237 234 233 234 238 243 245 245 246 247 248 251 255 258 262 266 268 269 272 277 281 286 287 280 273 270 268 266 267 273 278 275 271 272 272 275 281 286 290 292 295 298 301 304 307
246 243 238 234 233 234 235 235 235 236 239 241 242 244 244 240 237 236 235 231 229 232 237 242 244 245 246 248 249 251 252 256 261 262 263 266 271 275 279 284 287 281 274 272 270 267 270 276 277 272 270 271 270 273 279 284 287 290 293 297 300 303 307
247 246 240 235 234 235 236 236 236 238 242 245 246 245 243 241 238 238 237 232 228 231 237 241 244 245 248 250 250 251 251 254 260 261 261 264 269 273 277 282 286 284 277 271 268 268 271 274 272 269 269 270 269 272 277 281 284 287 291 295 299 302 306
244 245 241 236 235 236 239 240 241 242 245 249 250 249 247 243 240 241 242 236 229 232 238 243 246 249 251 253 255 258 257 254 255 257 259 262 266 271 278 283 286 285 277 268 265 265 267 269 267 267 269 269 269 271 276 280 283 285 289 293 297 301 304
241 242 240 237 236 238 241 243 245 246 249 253 254 251 247 241 238 244 247 238 229 232 238 244 249 252 254 257 260 264 263 256 255 257 258 260 265 271 278 282 284 282 274 265 262 261 262 264 264 265 267 267 267 270 275 280 282 283 286 291 294 298 301
240 240 239 238 238 239 240 242 245 248 251 253 252 247 242 238 238 244 245 234 227 232 241 246 251 252 255 259 260 258 258 255 256 258 258 261 266 271 275 278 280 277 270 261 257 257 258 260 262 265 266 265 266 270 274 277 279 281 284 289 291 294 298
239 238 237 237 238 240 241 241 243 245 246 248 247 239 236 237 236 235 233 227 225 230 237 244 251 253 255 257 255 254 258 259 257 258 259 261 264 268 271 274 275 273 267 259 255 254 256 259 263 265 265 266 268 271 274 277 278 280 282 285 288 291 295
238 237 236 237 238 240 241 241 241 242 242 244 242 235 233 238 238 231 226 224 225 225 226 235 248 255 254 252 248 247 251 253 254 258 260 261 264 268 269 269 270 269 265 259 254 253 255 260 264 266 267 269 271 272 274 277 278 279 281 282 285 289 292
238 238 237 236 238 241 242 242 241 239 239 240 238 234 233 236 237 232 227 227 226 221 222 232 245 252 252 249 245 244 246 248 252 258 263 266 271 273 270 266 265 264 262 256 251 250 254 260 265 268 271 273 273 273 275 277 278 278 279 280 283 286 290